太空蜂星座-112星 (SPACEBEE-112)

导读

SPACEBEE-112是美国于2022年3月15日08:00发射的低轨道通信卫星,隶属于Spacebee物联网卫星星座,该星座由Astra Space公司运营,旨在为全球范围提供物联网连接服务,支持偏远地区设备数据传输、资产跟踪等应用。作为星座组网卫星之一,它延续了该系列小卫星紧凑设计理念,依托批量发射模式推进星座部署,拓展全球物联网络覆盖能力。

Basic Information
目录编号:
52025
目录名称:
SPACEBEE-112
国际标识:
2022-026T
轨道中心:
EARTH
卫星名称:
太空蜂星座-112星
卫星全名:
太空蜂星座-112星 (SPACEBEE-112)
卫星状态:
已陨落 最后检测时间 2024-01-12
发射日期:
2022-03-15 UTC
国别 :
美国 (US)
星等 :
--
Orbit Information
数据来源 国际轨道数据
星历时间: 2024-01-10T22:16:04+0800
轨道信息已过期915天
半长轴: 6527.372km
偏心率: 0.0010844
轨道倾角: 97.454°
近地点辐角 273.707°
升交点赤经 29.491°
平近点角 86.300°
近地点: 142.158km
远地点: 156.316km
周期: 87.472分钟
每日圈数: 16.462481
Detailed Information
平衡模式:
三轴稳定
覆盖范围:
全球
运营商:
蜂群科技公司
运营商所在国:
美国
制造商(研发单位):
蜂群科技公司
制造商所在国:
美国
使用方式:
暂无
Satellite Introduction
太空蜜蜂(SpaceBEE)皮卫星建立在0.25U立方体卫星平台上,是私营公司蜂群科技公司(Swarm Technologies)开发的卫星星座的一部分。该星座计划由大约150颗皮卫星组成,提供双向卫星通信和数据中继。该卫星已陨落。